Year,Month,Day,Hour,Minute,Value (Times are PST for temperature in C)
2006,08,14,00,00,15.60
2006,08,14,00,01,15.60
2006,08,14,00,02,15.60
2006,08,14,00,03,15.60
2006,08,14,00,04,15.60
2006,08,14,00,05,15.60
2006,08,14,00,06,15.60
2006,08,14,00,07,15.50
2006,08,14,00,08,15.50
2006,08,14,00,09,15.50
2006,08,14,00,10,15.50
2006,08,14,00,11,15.50
2006,08,14,00,12,15.50
2006,08,14,00,13,15.50
2006,08,14,00,14,15.50
2006,08,14,00,15,15.40
2006,08,14,00,16,15.40
2006,08,14,00,17,15.40
2006,08,14,00,18,15.40
2006,08,14,00,19,15.30
2006,08,14,00,20,15.30
2006,08,14,00,21,15.30
2006,08,14,00,22,15.30
2006,08,14,00,23,15.30
2006,08,14,00,24,15.30
2006,08,14,00,25,15.30
2006,08,14,00,26,15.20
2006,08,14,00,27,15.20
2006,08,14,00,28,15.20
2006,08,14,00,29,15.10
2006,08,14,00,30,15.10
2006,08,14,00,31,15.10
2006,08,14,00,32,15.10
2006,08,14,00,33,15.00
2006,08,14,00,34,15.00
2006,08,14,00,35,15.00
2006,08,14,00,36,14.90
2006,08,14,00,37,14.90
2006,08,14,00,38,14.80
2006,08,14,00,39,14.80
2006,08,14,00,40,14.80
2006,08,14,00,41,14.80
2006,08,14,00,42,14.70
2006,08,14,00,43,14.70
2006,08,14,00,44,14.60
2006,08,14,00,45,14.60
2006,08,14,00,46,14.60
2006,08,14,00,47,14.60
2006,08,14,00,48,14.50
2006,08,14,00,49,14.50
2006,08,14,00,50,14.50
2006,08,14,00,51,14.50
2006,08,14,00,52,14.40
2006,08,14,00,53,14.40
2006,08,14,00,54,14.40
2006,08,14,00,55,14.30
2006,08,14,00,56,14.30
2006,08,14,00,57,14.30
2006,08,14,00,58,14.20
2006,08,14,00,59,14.20
2006,08,14,01,00,14.20
2006,08,14,01,01,14.20
2006,08,14,01,02,14.20
2006,08,14,01,03,14.20
2006,08,14,01,04,14.20
2006,08,14,01,05,14.20
2006,08,14,01,06,14.10
2006,08,14,01,07,14.10
2006,08,14,01,08,14.10
2006,08,14,01,09,14.10
2006,08,14,01,10,14.10
2006,08,14,01,11,14.10
2006,08,14,01,12,14.10
2006,08,14,01,13,14.00
2006,08,14,01,14,14.00
2006,08,14,01,15,14.00
2006,08,14,01,16,14.00
2006,08,14,01,17,14.00
2006,08,14,01,18,14.00
2006,08,14,01,19,14.00
2006,08,14,01,20,14.00
2006,08,14,01,21,14.00
2006,08,14,01,22,14.00
2006,08,14,01,23,14.00
2006,08,14,01,24,14.10
2006,08,14,01,25,14.10
2006,08,14,01,26,14.10
2006,08,14,01,27,14.10
2006,08,14,01,28,14.10
2006,08,14,01,29,14.20
2006,08,14,01,30,14.20
2006,08,14,01,31,14.20
2006,08,14,01,32,14.10
2006,08,14,01,33,14.10
2006,08,14,01,34,14.10
2006,08,14,01,35,14.10
2006,08,14,01,36,14.10
2006,08,14,01,37,14.00
2006,08,14,01,38,14.00
2006,08,14,01,39,14.00
2006,08,14,01,40,14.00
2006,08,14,01,41,14.00
2006,08,14,01,42,13.90
2006,08,14,01,43,13.90
2006,08,14,01,44,13.90
2006,08,14,01,45,13.90
2006,08,14,01,46,13.90
2006,08,14,01,47,13.90
2006,08,14,01,48,13.80
2006,08,14,01,49,13.80
2006,08,14,01,50,13.80
2006,08,14,01,51,13.80
2006,08,14,01,52,13.70
2006,08,14,01,53,13.70
2006,08,14,01,54,13.70
2006,08,14,01,55,13.70
2006,08,14,01,56,13.70
2006,08,14,01,57,13.70
2006,08,14,01,58,13.60
2006,08,14,01,59,13.60
2006,08,14,02,00,13.60
2006,08,14,02,01,13.60
2006,08,14,02,02,13.60
2006,08,14,02,03,13.50
2006,08,14,02,04,13.50
2006,08,14,02,05,13.50
2006,08,14,02,06,13.50
2006,08,14,02,07,13.40
2006,08,14,02,08,13.40
2006,08,14,02,09,13.40
2006,08,14,02,10,13.40
2006,08,14,02,11,13.30
2006,08,14,02,12,13.30
2006,08,14,02,13,13.30
2006,08,14,02,14,13.30
2006,08,14,02,15,13.30
2006,08,14,02,16,13.30
2006,08,14,02,17,13.30
2006,08,14,02,18,13.30
2006,08,14,02,19,13.30
2006,08,14,02,20,13.30
2006,08,14,02,21,13.30
2006,08,14,02,22,13.30
2006,08,14,02,23,13.30
2006,08,14,02,24,13.20
2006,08,14,02,25,13.20
2006,08,14,02,26,13.20
2006,08,14,02,27,13.20
2006,08,14,02,28,13.10
2006,08,14,02,29,13.10
2006,08,14,02,30,13.10
2006,08,14,02,31,13.10
2006,08,14,02,32,13.10
2006,08,14,02,33,13.10
2006,08,14,02,34,13.10
2006,08,14,02,35,13.00
2006,08,14,02,36,13.00
2006,08,14,02,37,13.00
2006,08,14,02,38,12.90
2006,08,14,02,39,12.90
2006,08,14,02,40,12.90
2006,08,14,02,41,12.80
2006,08,14,02,42,12.80
2006,08,14,02,43,12.80
2006,08,14,02,44,12.80
2006,08,14,02,45,12.80
2006,08,14,02,46,12.80
2006,08,14,02,47,12.70
2006,08,14,02,48,12.70
2006,08,14,02,49,12.70
2006,08,14,02,50,12.70
2006,08,14,02,51,12.70
2006,08,14,02,52,12.70
2006,08,14,02,53,12.70
2006,08,14,02,54,12.70
2006,08,14,02,55,12.70
2006,08,14,02,56,12.70
2006,08,14,02,57,12.70
2006,08,14,02,58,12.60
2006,08,14,02,59,12.60
2006,08,14,03,00,12.60
2006,08,14,03,01,12.60
2006,08,14,03,02,12.60
2006,08,14,03,03,12.60
2006,08,14,03,04,12.60
2006,08,14,03,05,12.60
2006,08,14,03,06,12.60
2006,08,14,03,07,12.70
2006,08,14,03,08,12.80
2006,08,14,03,09,12.80
2006,08,14,03,10,12.90
2006,08,14,03,11,12.90
2006,08,14,03,12,13.00
2006,08,14,03,13,13.00
2006,08,14,03,14,13.10
2006,08,14,03,15,13.10
2006,08,14,03,16,13.10
2006,08,14,03,17,13.10
2006,08,14,03,18,13.00
2006,08,14,03,19,13.00
2006,08,14,03,20,12.90
2006,08,14,03,21,12.80
2006,08,14,03,22,12.80
2006,08,14,03,23,12.80
2006,08,14,03,24,12.80
2006,08,14,03,25,12.80
2006,08,14,03,26,12.80
2006,08,14,03,27,12.80
2006,08,14,03,28,12.80
2006,08,14,03,29,12.80
2006,08,14,03,30,12.80
2006,08,14,03,31,12.80
2006,08,14,03,32,12.80
2006,08,14,03,33,12.70
2006,08,14,03,34,12.70
2006,08,14,03,35,12.60
2006,08,14,03,36,12.60
2006,08,14,03,37,12.60
2006,08,14,03,38,12.50
2006,08,14,03,39,12.50
2006,08,14,03,40,12.40
2006,08,14,03,41,12.30
2006,08,14,03,42,12.30
2006,08,14,03,43,12.30
2006,08,14,03,44,12.20
2006,08,14,03,45,12.20
2006,08,14,03,46,12.10
2006,08,14,03,47,12.10
2006,08,14,03,48,12.00
2006,08,14,03,49,12.00
2006,08,14,03,50,12.00
2006,08,14,03,51,11.90
2006,08,14,03,52,11.90
2006,08,14,03,53,11.90
2006,08,14,03,54,11.90
2006,08,14,03,55,11.80
2006,08,14,03,56,11.80
2006,08,14,03,57,11.80
2006,08,14,03,58,11.80
2006,08,14,03,59,11.80
2006,08,14,04,00,11.80
2006,08,14,04,01,11.80
2006,08,14,04,02,11.80
2006,08,14,04,03,11.80
2006,08,14,04,04,11.80
2006,08,14,04,05,11.80
2006,08,14,04,06,11.80
2006,08,14,04,07,11.80
2006,08,14,04,08,11.70
2006,08,14,04,09,11.70
2006,08,14,04,10,11.70
2006,08,14,04,11,11.70
2006,08,14,04,12,11.70
2006,08,14,04,13,11.70
2006,08,14,04,14,11.70
2006,08,14,04,15,11.60
2006,08,14,04,16,11.60
2006,08,14,04,17,11.60
2006,08,14,04,18,11.60
2006,08,14,04,19,11.60
2006,08,14,04,20,11.60
2006,08,14,04,21,11.60
2006,08,14,04,22,11.60
2006,08,14,04,23,11.60
2006,08,14,04,24,11.60
2006,08,14,04,25,11.60
2006,08,14,04,26,11.60
2006,08,14,04,27,11.60
2006,08,14,04,28,11.60
2006,08,14,04,29,11.60
2006,08,14,04,30,11.60
2006,08,14,04,31,11.60
2006,08,14,04,32,11.60
2006,08,14,04,33,11.60
2006,08,14,04,34,11.60
2006,08,14,04,35,11.60
2006,08,14,04,36,11.60
2006,08,14,04,37,11.60
2006,08,14,04,38,11.60
2006,08,14,04,39,11.60
2006,08,14,04,40,11.60
2006,08,14,04,41,11.60
2006,08,14,04,42,11.60
2006,08,14,04,43,11.60
2006,08,14,04,44,11.60
2006,08,14,04,45,11.60
2006,08,14,04,46,11.60
2006,08,14,04,47,11.70
2006,08,14,04,48,11.70
2006,08,14,04,49,11.70
2006,08,14,04,50,11.80
2006,08,14,04,51,11.80
2006,08,14,04,52,11.80
2006,08,14,04,53,11.80
2006,08,14,04,54,11.80
2006,08,14,04,55,11.80
2006,08,14,04,56,11.80
2006,08,14,04,57,11.90
2006,08,14,04,58,12.00
2006,08,14,04,59,12.00
2006,08,14,05,00,12.00
2006,08,14,05,01,12.10
2006,08,14,05,02,12.10
2006,08,14,05,03,12.10
2006,08,14,05,04,12.00
2006,08,14,05,05,12.00
2006,08,14,05,06,12.00
2006,08,14,05,07,12.00
2006,08,14,05,08,12.00
2006,08,14,05,09,11.90
2006,08,14,05,10,11.90
2006,08,14,05,11,11.90
2006,08,14,05,12,11.80
2006,08,14,05,13,11.80
2006,08,14,05,14,11.80
2006,08,14,05,15,11.80
2006,08,14,05,16,11.80
2006,08,14,05,17,11.80
2006,08,14,05,18,11.80
2006,08,14,05,19,11.80
2006,08,14,05,20,11.70
2006,08,14,05,21,11.70
2006,08,14,05,22,11.70
2006,08,14,05,23,11.70
2006,08,14,05,24,11.70
2006,08,14,05,25,11.80
2006,08,14,05,26,11.80
2006,08,14,05,27,11.80
2006,08,14,05,28,11.80
2006,08,14,05,29,11.80
2006,08,14,05,30,11.80
2006,08,14,05,31,11.80
2006,08,14,05,32,11.80
2006,08,14,05,33,11.80
2006,08,14,05,34,11.80
2006,08,14,05,35,11.80
2006,08,14,05,36,11.80
2006,08,14,05,37,11.80
2006,08,14,05,38,11.80
2006,08,14,05,39,11.80
2006,08,14,05,40,11.80
2006,08,14,05,41,11.80
2006,08,14,05,42,11.80
2006,08,14,05,43,11.80
2006,08,14,05,44,11.80
2006,08,14,05,45,11.80
2006,08,14,05,46,11.80
2006,08,14,05,47,11.80
2006,08,14,05,48,11.80
2006,08,14,05,49,11.80
2006,08,14,05,50,11.80
2006,08,14,05,51,11.80
2006,08,14,05,52,11.80
2006,08,14,05,53,11.80
2006,08,14,05,54,11.80
2006,08,14,05,55,11.80
2006,08,14,05,56,11.90
2006,08,14,05,57,11.90
2006,08,14,05,58,12.00
2006,08,14,05,59,12.00
2006,08,14,06,00,12.10
2006,08,14,06,01,12.10
2006,08,14,06,02,12.10
2006,08,14,06,03,12.10
2006,08,14,06,04,12.00
2006,08,14,06,05,12.00
2006,08,14,06,06,12.00
2006,08,14,06,07,12.00
2006,08,14,06,08,11.90
2006,08,14,06,09,11.90
2006,08,14,06,10,11.80
2006,08,14,06,11,11.90
2006,08,14,06,12,11.90
2006,08,14,06,13,11.90
2006,08,14,06,14,11.90
2006,08,14,06,15,11.90
2006,08,14,06,16,11.90
2006,08,14,06,17,11.90
2006,08,14,06,18,11.90
2006,08,14,06,19,11.90
2006,08,14,06,20,11.90
2006,08,14,06,21,11.90
2006,08,14,06,22,11.80
2006,08,14,06,23,11.80
2006,08,14,06,24,11.80
2006,08,14,06,25,11.80
2006,08,14,06,26,11.80
2006,08,14,06,27,11.80
2006,08,14,06,28,11.80
2006,08,14,06,29,11.90
2006,08,14,06,30,12.00
2006,08,14,06,31,12.00
2006,08,14,06,32,12.10
2006,08,14,06,33,12.20
2006,08,14,06,34,12.20
2006,08,14,06,35,12.10
2006,08,14,06,36,12.10
2006,08,14,06,37,12.10
2006,08,14,06,38,12.10
2006,08,14,06,39,12.10
2006,08,14,06,40,12.10
2006,08,14,06,41,12.10
2006,08,14,06,42,12.00
2006,08,14,06,43,12.00
2006,08,14,06,44,12.00
2006,08,14,06,45,12.00
2006,08,14,06,46,12.00
2006,08,14,06,47,12.00
2006,08,14,06,48,11.90
2006,08,14,06,49,11.90
2006,08,14,06,50,11.90
2006,08,14,06,51,11.90
2006,08,14,06,52,11.90
2006,08,14,06,53,11.90
2006,08,14,06,54,11.90
2006,08,14,06,55,11.90
2006,08,14,06,56,12.00
2006,08,14,06,57,12.00
2006,08,14,06,58,12.00
2006,08,14,06,59,12.10
2006,08,14,07,00,12.10
2006,08,14,07,01,12.20
2006,08,14,07,02,12.30
2006,08,14,07,03,12.30
2006,08,14,07,04,12.40
2006,08,14,07,05,12.50
2006,08,14,07,06,12.60
2006,08,14,07,07,12.70
2006,08,14,07,08,12.80
2006,08,14,07,09,12.80
2006,08,14,07,10,12.90
2006,08,14,07,11,13.00
2006,08,14,07,12,13.00
2006,08,14,07,13,13.10
2006,08,14,07,14,13.10
2006,08,14,07,15,13.20
2006,08,14,07,16,13.30
2006,08,14,07,17,13.40
2006,08,14,07,18,13.50
2006,08,14,07,19,13.60
2006,08,14,07,20,13.70
2006,08,14,07,21,13.70
2006,08,14,07,22,13.80
2006,08,14,07,23,13.90
2006,08,14,07,24,14.00
2006,08,14,07,25,14.10
2006,08,14,07,26,14.20
2006,08,14,07,27,14.20
2006,08,14,07,28,14.40
2006,08,14,07,29,14.50
2006,08,14,07,30,14.50
2006,08,14,07,31,14.60
2006,08,14,07,32,14.70
2006,08,14,07,33,14.70
2006,08,14,07,34,14.80
2006,08,14,07,35,14.80
2006,08,14,07,36,14.80
2006,08,14,07,37,14.90
2006,08,14,07,38,15.00
2006,08,14,07,39,15.00
2006,08,14,07,40,15.10
2006,08,14,07,41,15.10
2006,08,14,07,42,15.10
2006,08,14,07,43,15.20
2006,08,14,07,44,15.30
2006,08,14,07,45,15.30
2006,08,14,07,46,15.30
2006,08,14,07,47,15.30
2006,08,14,07,48,15.40
2006,08,14,07,49,15.50
2006,08,14,07,50,15.50
2006,08,14,07,51,15.60
2006,08,14,07,52,15.60
2006,08,14,07,53,15.70
2006,08,14,07,54,15.80
2006,08,14,07,55,15.80
2006,08,14,07,56,15.90
2006,08,14,07,57,16.00
2006,08,14,07,58,16.10
2006,08,14,07,59,16.10
2006,08,14,08,00,16.20
2006,08,14,08,01,16.20
2006,08,14,08,02,16.30
2006,08,14,08,03,16.30
2006,08,14,08,04,16.40
2006,08,14,08,05,16.40
2006,08,14,08,06,16.40
2006,08,14,08,07,16.50
2006,08,14,08,08,16.60
2006,08,14,08,09,16.60
2006,08,14,08,10,16.60
2006,08,14,08,11,16.60
2006,08,14,08,12,16.60
2006,08,14,08,13,16.70
2006,08,14,08,14,16.60
2006,08,14,08,15,16.60
2006,08,14,08,16,16.60
2006,08,14,08,17,16.50
2006,08,14,08,18,16.40
2006,08,14,08,19,16.40
2006,08,14,08,20,16.30
2006,08,14,08,21,16.30
2006,08,14,08,22,16.20
2006,08,14,08,23,16.10
2006,08,14,08,24,16.00
2006,08,14,08,25,15.90
2006,08,14,08,26,16.00
2006,08,14,08,27,16.10
2006,08,14,08,28,16.10
2006,08,14,08,29,16.10
2006,08,14,08,30,16.10
2006,08,14,08,31,16.20
2006,08,14,08,32,16.20
2006,08,14,08,33,16.30
2006,08,14,08,34,16.30
2006,08,14,08,35,16.30
2006,08,14,08,36,16.30
2006,08,14,08,37,16.20
2006,08,14,08,38,16.20
2006,08,14,08,39,16.20
2006,08,14,08,40,16.20
2006,08,14,08,41,16.20
2006,08,14,08,42,16.20
2006,08,14,08,43,16.20
2006,08,14,08,44,16.20
2006,08,14,08,45,16.20
2006,08,14,08,46,16.10
2006,08,14,08,47,16.10
2006,08,14,08,48,16.10
2006,08,14,08,49,16.10
2006,08,14,08,50,16.10
2006,08,14,08,51,16.10
2006,08,14,08,52,16.10
2006,08,14,08,53,16.10
2006,08,14,08,54,16.00
2006,08,14,08,55,15.90
2006,08,14,08,56,15.90
2006,08,14,08,57,15.90
2006,08,14,08,58,15.90
2006,08,14,08,59,15.90
2006,08,14,09,00,15.80
2006,08,14,09,01,15.80
2006,08,14,09,02,15.80
2006,08,14,09,03,15.80
2006,08,14,09,04,15.80
2006,08,14,09,05,16.00
2006,08,14,09,06,16.10
2006,08,14,09,07,16.10
2006,08,14,09,08,16.20
2006,08,14,09,09,16.20
2006,08,14,09,10,16.20
2006,08,14,09,11,16.20
2006,08,14,09,12,16.30
2006,08,14,09,13,16.30
2006,08,14,09,14,16.40
2006,08,14,09,15,16.40
2006,08,14,09,16,16.40
2006,08,14,09,17,16.40
2006,08,14,09,18,16.40
2006,08,14,09,19,16.40
2006,08,14,09,20,16.50
2006,08,14,09,21,16.60
2006,08,14,09,22,16.60
2006,08,14,09,23,16.70
2006,08,14,09,24,16.70
2006,08,14,09,25,16.70
2006,08,14,09,26,16.80
2006,08,14,09,27,16.80
2006,08,14,09,28,16.80
2006,08,14,09,29,16.80
2006,08,14,09,30,16.80
2006,08,14,09,31,16.90
2006,08,14,09,32,16.90
2006,08,14,09,33,17.00
2006,08,14,09,34,17.00
2006,08,14,09,35,17.00
2006,08,14,09,36,17.00
2006,08,14,09,37,17.00
2006,08,14,09,38,17.20
2006,08,14,09,39,17.30
2006,08,14,09,40,17.30
2006,08,14,09,41,17.40
2006,08,14,09,42,17.40
2006,08,14,09,43,17.50
2006,08,14,09,44,17.60
2006,08,14,09,45,17.70
2006,08,14,09,46,17.70
2006,08,14,09,47,17.80
2006,08,14,09,48,17.80
2006,08,14,09,49,17.80
2006,08,14,09,50,17.80
2006,08,14,09,51,17.70
2006,08,14,09,52,17.70
2006,08,14,09,53,17.70
2006,08,14,09,54,17.70
2006,08,14,09,55,17.60
2006,08,14,09,56,17.50
2006,08,14,09,57,17.50
2006,08,14,09,58,17.50
2006,08,14,09,59,17.50
2006,08,14,10,00,17.50
2006,08,14,10,01,17.50
2006,08,14,10,02,17.60
2006,08,14,10,03,17.70
2006,08,14,10,04,17.70
2006,08,14,10,05,17.60
2006,08,14,10,06,17.60
2006,08,14,10,07,17.60
2006,08,14,10,08,17.60
2006,08,14,10,09,17.60
2006,08,14,10,10,17.60
2006,08,14,10,11,17.60
2006,08,14,10,12,17.70
2006,08,14,10,13,17.60
2006,08,14,10,14,17.60
2006,08,14,10,15,17.50
2006,08,14,10,16,17.50
2006,08,14,10,17,17.40
2006,08,14,10,18,17.40
2006,08,14,10,19,17.40
2006,08,14,10,20,17.40
2006,08,14,10,21,17.40
2006,08,14,10,22,17.40
2006,08,14,10,23,17.40
2006,08,14,10,24,17.50
2006,08,14,10,25,17.70
2006,08,14,10,26,17.70
2006,08,14,10,27,17.70
2006,08,14,10,28,17.80
2006,08,14,10,29,17.80
2006,08,14,10,30,17.70
2006,08,14,10,31,17.60
2006,08,14,10,32,17.50
2006,08,14,10,33,17.50
2006,08,14,10,34,17.50
2006,08,14,10,35,17.40
2006,08,14,10,36,17.30
2006,08,14,10,37,17.30
2006,08,14,10,38,17.40
2006,08,14,10,39,17.40
2006,08,14,10,40,17.40
2006,08,14,10,41,17.50
2006,08,14,10,42,17.40
2006,08,14,10,43,17.40
2006,08,14,10,44,17.40
2006,08,14,10,45,17.40
2006,08,14,10,46,17.50
2006,08,14,10,47,17.60
2006,08,14,10,48,17.60
2006,08,14,10,49,17.70
2006,08,14,10,50,17.70
2006,08,14,10,51,17.70
2006,08,14,10,52,17.80
2006,08,14,10,53,17.70
2006,08,14,10,54,17.70
2006,08,14,10,55,17.70
2006,08,14,10,56,17.80
2006,08,14,10,57,17.70
2006,08,14,10,58,17.60
2006,08,14,10,59,17.60
2006,08,14,11,00,17.60
2006,08,14,11,01,17.50
2006,08,14,11,02,17.50
2006,08,14,11,03,17.40
2006,08,14,11,04,17.40
2006,08,14,11,05,17.40
2006,08,14,11,06,17.30
2006,08,14,11,07,17.20
2006,08,14,11,08,17.10
2006,08,14,11,09,17.10
2006,08,14,11,10,17.10
2006,08,14,11,11,16.80
2006,08,14,11,12,16.70
2006,08,14,11,13,16.70
2006,08,14,11,14,16.70
2006,08,14,11,15,16.70
2006,08,14,11,16,16.80
2006,08,14,11,17,16.90
2006,08,14,11,18,16.90
2006,08,14,11,19,16.80
2006,08,14,11,20,16.80
2006,08,14,11,21,16.70
2006,08,14,11,22,16.70
2006,08,14,11,23,16.80
2006,08,14,11,24,16.80
2006,08,14,11,25,16.80
2006,08,14,11,26,16.80
2006,08,14,11,27,16.90
2006,08,14,11,28,17.00
2006,08,14,11,29,17.10
2006,08,14,11,30,17.20
2006,08,14,11,31,17.20
2006,08,14,11,32,17.30
2006,08,14,11,33,17.30
2006,08,14,11,34,17.30
2006,08,14,11,35,17.30
2006,08,14,11,36,17.30
2006,08,14,11,37,17.30
2006,08,14,11,38,17.30
2006,08,14,11,39,17.40
2006,08,14,11,40,17.40
2006,08,14,11,41,17.40
2006,08,14,11,42,17.50
2006,08,14,11,43,17.50
2006,08,14,11,44,17.50
2006,08,14,11,45,17.30
2006,08,14,11,46,17.30
2006,08,14,11,47,17.30
2006,08,14,11,48,17.30
2006,08,14,11,49,17.40
2006,08,14,11,50,17.50
2006,08,14,11,51,17.50
2006,08,14,11,52,17.60
2006,08,14,11,53,17.60
2006,08,14,11,54,17.60
2006,08,14,11,55,17.50
2006,08,14,11,56,17.40
2006,08,14,11,57,17.30
2006,08,14,11,58,17.20
2006,08,14,11,59,17.20
2006,08,14,12,00,17.20
2006,08,14,12,01,17.10
2006,08,14,12,02,17.10
2006,08,14,12,03,17.00
2006,08,14,12,04,17.00
2006,08,14,12,05,17.00
2006,08,14,12,06,17.00
2006,08,14,12,07,17.00
2006,08,14,12,08,17.10
2006,08,14,12,09,17.10
2006,08,14,12,10,17.10
2006,08,14,12,11,17.00
2006,08,14,12,12,16.90
2006,08,14,12,13,16.80
2006,08,14,12,14,16.70
2006,08,14,12,15,16.70
2006,08,14,12,16,16.70
2006,08,14,12,17,16.70
2006,08,14,12,18,16.70
2006,08,14,12,19,16.70
2006,08,14,12,20,16.90
2006,08,14,12,21,17.10
2006,08,14,12,22,17.20
2006,08,14,12,23,17.20
2006,08,14,12,24,17.20
2006,08,14,12,25,17.20
2006,08,14,12,26,17.10
2006,08,14,12,27,17.10
2006,08,14,12,28,17.20
2006,08,14,12,29,17.30
2006,08,14,12,30,17.30
2006,08,14,12,31,17.30
2006,08,14,12,32,17.30
2006,08,14,12,33,17.30
2006,08,14,12,34,17.40
2006,08,14,12,35,17.40
2006,08,14,12,36,17.30
2006,08,14,12,37,17.30
2006,08,14,12,38,17.30
2006,08,14,12,39,17.30
2006,08,14,12,40,17.40
2006,08,14,12,41,17.60
2006,08,14,12,42,17.60
2006,08,14,12,43,17.60
2006,08,14,12,44,17.60
2006,08,14,12,45,17.60
2006,08,14,12,46,17.70
2006,08,14,12,47,17.70
2006,08,14,12,48,17.80
2006,08,14,12,49,17.90
2006,08,14,12,50,18.00
2006,08,14,12,51,18.20
2006,08,14,12,52,18.20
2006,08,14,12,53,18.20
2006,08,14,12,54,18.20
2006,08,14,12,55,18.10
2006,08,14,12,56,18.00
2006,08,14,12,57,17.90
2006,08,14,12,58,17.80
2006,08,14,12,59,17.90
2006,08,14,13,00,18.00
2006,08,14,13,01,18.20
2006,08,14,13,02,18.20
2006,08,14,13,03,18.20
2006,08,14,13,04,18.30
2006,08,14,13,05,18.40
2006,08,14,13,06,18.50
2006,08,14,13,07,18.60
2006,08,14,13,08,18.60
2006,08,14,13,09,18.70
2006,08,14,13,10,18.70
2006,08,14,13,11,18.70
2006,08,14,13,12,18.70
2006,08,14,13,13,18.80
2006,08,14,13,14,18.80
2006,08,14,13,15,18.70
2006,08,14,13,16,18.70
2006,08,14,13,17,18.60
2006,08,14,13,18,18.60
2006,08,14,13,19,18.60
2006,08,14,13,20,18.70
2006,08,14,13,21,18.80
2006,08,14,13,22,18.90
2006,08,14,13,23,18.80
2006,08,14,13,24,18.90
2006,08,14,13,25,19.00
2006,08,14,13,26,19.10
2006,08,14,13,27,19.10
2006,08,14,13,28,19.10
2006,08,14,13,29,19.00
2006,08,14,13,30,18.90
2006,08,14,13,31,18.80
2006,08,14,13,32,18.60
2006,08,14,13,33,18.60
2006,08,14,13,34,18.50
2006,08,14,13,35,18.40
2006,08,14,13,36,18.30
2006,08,14,13,37,18.30
2006,08,14,13,38,18.30
2006,08,14,13,39,18.40
2006,08,14,13,40,18.40
2006,08,14,13,41,18.50
2006,08,14,13,42,18.60
2006,08,14,13,43,18.70
2006,08,14,13,44,18.90
2006,08,14,13,45,18.80
2006,08,14,13,46,18.80
2006,08,14,13,47,18.60
2006,08,14,13,48,18.60
2006,08,14,13,49,18.60
2006,08,14,13,50,18.60
2006,08,14,13,51,18.80
2006,08,14,13,52,18.90
2006,08,14,13,53,18.70
2006,08,14,13,54,18.50
2006,08,14,13,55,18.30
2006,08,14,13,56,18.20
2006,08,14,13,57,18.10
2006,08,14,13,58,18.00
2006,08,14,13,59,17.90
2006,08,14,14,00,17.90
2006,08,14,14,01,17.90
2006,08,14,14,02,17.90
2006,08,14,14,03,17.90
2006,08,14,14,04,17.80
2006,08,14,14,05,17.80
2006,08,14,14,06,17.70
2006,08,14,14,07,17.60
2006,08,14,14,08,17.60
2006,08,14,14,09,17.70
2006,08,14,14,10,17.90
2006,08,14,14,11,17.90
2006,08,14,14,12,18.10
2006,08,14,14,13,18.20
2006,08,14,14,14,18.30
2006,08,14,14,15,18.40
2006,08,14,14,16,18.50
2006,08,14,14,17,18.50
2006,08,14,14,18,18.60
2006,08,14,14,19,18.60
2006,08,14,14,20,18.70
2006,08,14,14,21,18.80
2006,08,14,14,22,18.80
2006,08,14,14,23,18.70
2006,08,14,14,24,18.60
2006,08,14,14,25,18.60
2006,08,14,14,26,18.60
2006,08,14,14,27,18.60
2006,08,14,14,28,18.60
2006,08,14,14,29,18.70
2006,08,14,14,30,18.70
2006,08,14,14,31,18.70
2006,08,14,14,32,18.80
2006,08,14,14,33,18.80
2006,08,14,14,34,18.80
2006,08,14,14,35,18.80
2006,08,14,14,36,18.80
2006,08,14,14,37,18.90
2006,08,14,14,38,18.90
2006,08,14,14,39,18.90
2006,08,14,14,40,18.90
2006,08,14,14,41,18.90
2006,08,14,14,42,19.00
2006,08,14,14,43,19.10
2006,08,14,14,44,19.10
2006,08,14,14,45,19.10
2006,08,14,14,46,19.10
2006,08,14,14,47,19.00
2006,08,14,14,48,18.90
2006,08,14,14,49,18.90
2006,08,14,14,50,18.90
2006,08,14,14,51,18.90
2006,08,14,14,52,18.90
2006,08,14,14,53,18.90
2006,08,14,14,54,18.80
2006,08,14,14,55,18.70
2006,08,14,14,56,18.70
2006,08,14,14,57,18.60
2006,08,14,14,58,18.50
2006,08,14,14,59,18.60
2006,08,14,15,00,18.60
2006,08,14,15,01,18.70
2006,08,14,15,02,18.80
2006,08,14,15,03,18.70
2006,08,14,15,04,18.60
2006,08,14,15,05,18.50
2006,08,14,15,06,18.50
2006,08,14,15,07,18.60
2006,08,14,15,08,18.70
2006,08,14,15,09,18.80
2006,08,14,15,10,18.80
2006,08,14,15,11,18.70
2006,08,14,15,12,18.60
2006,08,14,15,13,18.60
2006,08,14,15,14,18.60
2006,08,14,15,15,18.50
2006,08,14,15,16,18.30
2006,08,14,15,17,18.10
2006,08,14,15,18,18.10
2006,08,14,15,19,18.10
2006,08,14,15,20,18.00
2006,08,14,15,21,17.90
2006,08,14,15,22,17.90
2006,08,14,15,23,18.00
2006,08,14,15,24,18.00
2006,08,14,15,25,17.90
2006,08,14,15,26,17.80
2006,08,14,15,27,17.60
2006,08,14,15,28,17.40
2006,08,14,15,29,17.30
2006,08,14,15,30,17.00
2006,08,14,15,31,16.90
2006,08,14,15,32,16.80
2006,08,14,15,33,16.70
2006,08,14,15,34,16.70
2006,08,14,15,35,16.80
2006,08,14,15,36,16.80
2006,08,14,15,37,16.80
2006,08,14,15,38,16.90
2006,08,14,15,39,16.90
2006,08,14,15,40,17.00
2006,08,14,15,41,17.00
2006,08,14,15,42,16.90
2006,08,14,15,43,16.90
2006,08,14,15,44,16.80
2006,08,14,15,45,16.80
2006,08,14,15,46,16.90
2006,08,14,15,47,17.00
2006,08,14,15,48,17.20
2006,08,14,15,49,17.30
2006,08,14,15,50,17.30
2006,08,14,15,51,17.20
2006,08,14,15,52,17.20
2006,08,14,15,53,17.10
2006,08,14,15,54,16.90
2006,08,14,15,55,16.80
2006,08,14,15,56,16.70
2006,08,14,15,57,16.50
2006,08,14,15,58,16.40
2006,08,14,15,59,16.30
2006,08,14,16,00,16.30
2006,08,14,16,01,16.30
2006,08,14,16,02,16.40
2006,08,14,16,03,16.40
2006,08,14,16,04,16.40
2006,08,14,16,05,16.30
2006,08,14,16,06,16.20
2006,08,14,16,07,16.20
2006,08,14,16,08,16.20
2006,08,14,16,09,16.10
2006,08,14,16,10,16.00
2006,08,14,16,11,15.60
2006,08,14,16,12,15.30
2006,08,14,16,13,15.00
2006,08,14,16,14,14.70
2006,08,14,16,15,14.50
2006,08,14,16,16,14.30
2006,08,14,16,17,14.10
2006,08,14,16,18,14.00
2006,08,14,16,19,13.80
2006,08,14,16,20,13.70
2006,08,14,16,21,13.70
2006,08,14,16,22,13.80
2006,08,14,16,23,13.90
2006,08,14,16,24,13.90
2006,08,14,16,25,14.00
2006,08,14,16,26,14.10
2006,08,14,16,27,14.20
2006,08,14,16,28,14.30
2006,08,14,16,29,14.30
2006,08,14,16,30,14.20
2006,08,14,16,31,14.20
2006,08,14,16,32,14.10
2006,08,14,16,33,14.10
2006,08,14,16,34,14.10
2006,08,14,16,35,14.20
2006,08,14,16,36,14.10
2006,08,14,16,37,14.00
2006,08,14,16,38,13.90
2006,08,14,16,39,14.00
2006,08,14,16,40,14.00
2006,08,14,16,41,14.00
2006,08,14,16,42,13.90
2006,08,14,16,43,13.90
2006,08,14,16,44,13.90
2006,08,14,16,45,13.90
2006,08,14,16,46,13.90
2006,08,14,16,47,13.90
2006,08,14,16,48,13.90
2006,08,14,16,49,14.00
2006,08,14,16,50,14.00
2006,08,14,16,51,14.00
2006,08,14,16,52,14.10
2006,08,14,16,53,14.10
2006,08,14,16,54,14.20
2006,08,14,16,55,14.30
2006,08,14,16,56,14.20
2006,08,14,16,57,14.20
2006,08,14,16,58,14.30
2006,08,14,16,59,14.40
2006,08,14,17,00,14.50
2006,08,14,17,01,14.50
2006,08,14,17,02,14.60
2006,08,14,17,03,14.60
2006,08,14,17,04,14.40
2006,08,14,17,05,14.40
2006,08,14,17,06,14.40
2006,08,14,17,07,14.40
2006,08,14,17,08,14.40
2006,08,14,17,09,14.50
2006,08,14,17,10,14.60
2006,08,14,17,11,14.70
2006,08,14,17,12,14.80
2006,08,14,17,13,15.00
2006,08,14,17,14,15.10
2006,08,14,17,15,15.20
2006,08,14,17,16,15.30
2006,08,14,17,17,15.30
2006,08,14,17,18,15.40
2006,08,14,17,19,15.60